Location: Unspecified
(0.0000°N, 0.0000°E)
Time: 17:52:39
(UTC+02:00)

ADEOS II - Visible Passes

Search period start: 30 September 2014 00:00
Search period end: 10 October 2014 00:00
Orbit: 801 x 803 km, 98.3° (Epoch: 30 September)

Date Brightness Start Highest point End Pass type
(mag) Time Alt. Az. Time Alt. Az. Time Alt. Az.
30 Sep 3.4 07:17:04 10° NNE 07:22:04 45° ESE 07:27:04 10° S visible
01 Oct 4.8 06:52:09 10° NE 06:56:10 22° ESE 07:00:10 10° SSE visible
02 Oct 5.6 06:29:30 10° E 06:30:16 10° ESE 06:31:03 10° ESE visible
02 Oct 5.2 20:43:18 10° SW 20:46:33 17° WSW 20:49:49 10° WNW visible
03 Oct 4.1 20:15:57 10° SSW 20:20:39 34° WSW 20:25:21 10° NW visible
04 Oct 3.7 07:12:59 10° NNE 07:17:53 41° ESE 07:22:48 10° S visible
05 Oct 4.9 06:48:11 10° NE 06:51:58 20° ESE 06:55:46 10° SSE visible
06 Oct 5.1 20:38:49 10° SW 20:42:22 19° WSW 20:45:55 10° WNW visible
07 Oct 3.9 20:11:38 10° S 20:16:27 37° WSW 20:21:16 10° NW visible
08 Oct 3.9 07:08:53 10° NE 07:13:41 37° ESE 07:18:30 10° SSE visible
09 Oct 5.1 06:44:14 10° ENE 06:47:47 18° ESE 06:51:19 10° SE visible
